Location: Newark
(47.4417°N, 1.1394°W)
Time: 07:03:28
(UTC+00:00)

Envisat - Pass Details

Date: 26 November 2019
Orbit: 764 x 766 km, 98.1° (Epoch: 14 December)

Event Time Altitude Azimuth Distance (km) Brightness Sun altitude
Rises 06:38:12 0° 17° (NNE) 3,243 6.2 -7.8°
Reaches altitude 10° 06:40:34 10° 22° (NNE) 2,312 5.5 -7.4°
Maximum altitude 06:45:33 53° 100° (E) 938 4.0 -6.6°
Drops below altitude 10° 06:50:30 10° 177° (S) 2,295 5.9 -5.9°
Sets 06:52:51 0° 182° (S) 3,216 6.6 -5.5°
